Retour au catalogue

STARLINK-3506

ActifCommunicationsVLEO
NORAD 51751·PAYLOAD·🇺🇸 United States

Lancé Feb 21, 2022 depuis Cape Canaveral Space Force Station

Loading…

Prochains Passages (prochaines 24 heures)

TLE

FraisSource: CelesTrak SupGP

Époque: Sep 15, 2026, 02:14 UTC

1 51751C 22016AP  26258.09354167  .00016280  00000+0  48159-3 0  2582
2 51751  53.1581 164.6501 0001195  83.0068  50.9174 15.34344098    16

Suivez STARLINK-3506 en temps réel avec AllMySat

Download on the App Store